This is the latest recevied weather packets stored in our database for station/object KY0TEQ-13. If no packets are shown the sender has not sent any weather packets the latest 10 day(s).
| Time | Temp. | Humidity | Pressure | Rain* | Wind** | Luminosity | Snow |
|---|---|---|---|---|---|---|---|
| 1777930049 | 16.67° C | 27% | 1298.5 hPa | 0 mm | - | 593 W/m² | - |
| 1777929740 | 16.11° C | 27% | 1298.7 hPa | 0 mm | - | 592 W/m² | - |
| 1777929437 | 16.11° C | 28% | 1298.5 hPa | 0 mm | - | 583 W/m² | - |
| 1777929133 | 16.11° C | 29% | 1298.7 hPa | 0 mm | - | 287 W/m² | - |
| 1777928830 | 16.11° C | 27% | 1298.8 hPa | 0 mm | - | 471 W/m² | - |
| 1777928527 | 16.11° C | 31% | 1298.8 hPa | 0 mm | - | 368 W/m² | - |
| 1777928224 | 16.11° C | 29% | 1298.5 hPa | 0 mm | - | 380 W/m² | - |
| 1777927921 | 15.56° C | 29% | 1298.9 hPa | 0 mm | - | 324 W/m² | - |
| 1777927620 | 16.11° C | 28% | 1299.2 hPa | 0 mm | - | 424 W/m² | - |
| 1777927319 | 16.11° C | 28% | 1299.2 hPa | 0 mm | - | 441 W/m² | - |
| 1777927017 | 15.56° C | 30% | 1299.2 hPa | 0 mm | - | 427 W/m² | - |
| 1777926714 | 16.11° C | 30% | 1299.2 hPa | 0 mm | - | 529 W/m² | - |
| 1777926408 | 16.11° C | 29% | 1299.3 hPa | 0 mm | - | 405 W/m² | - |
| 1777926106 | 16.11° C | 28% | 1299.5 hPa | 0 mm | - | 491 W/m² | - |
| 1777925803 | 15.56° C | 29% | 1299.3 hPa | 0 mm | - | 486 W/m² | - |
| 1777925500 | 15.56° C | 30% | 1299.4 hPa | 0 mm | - | 408 W/m² | - |
| 1777925197 | 15.56° C | 29% | 1299.5 hPa | 0 mm | - | 382 W/m² | - |
| 1777924894 | 16.11° C | 30% | 1299.5 hPa | 0 mm | - | 382 W/m² | - |
| 1777924590 | 15.56° C | 30% | 1299.6 hPa | 0 mm | - | 393 W/m² | - |
| 1777924286 | 15.56° C | 31% | 1299.9 hPa | 0 mm | - | 398 W/m² | - |
| 1777923983 | 15.56° C | 30% | 1299.4 hPa | 0 mm | - | 395 W/m² | - |
| 1777923679 | 15.56° C | 30% | 1299.4 hPa | 0 mm | - | 392 W/m² | - |
| 1777923375 | 15° C | 33% | 1299.6 hPa | 0 mm | - | 394 W/m² | - |
| 1777923074 | 15° C | 32% | 1299.6 hPa | 0 mm | - | 422 W/m² | - |
| 1777922772 | 15° C | 33% | 1299.5 hPa | 0 mm | - | 385 W/m² | - |
* Rain latest hour (hover to see other rain measurements)
** Current wind speed in m/s (hover to see current wind gust speed)